Terug naar catalogus

BEIJING 3B

ActiefWetenschapSSO
NORAD 53587·PAYLOAD·🇨🇳 China

Gelanceerd Aug 24, 2022 vanaf Taiyuan Satellite Launch Center

Loading…

Volgende Passages (komende 24 uur)

TLE

VersSource: Space-Track

Epoch: Sep 14, 2026, 23:28 UTC

1 53587U 22103A   26257.97837236  .00000896  00000-0  10538-3 0  9996
2 53587  97.7950 333.7843 0026491 114.5931 245.8050 14.87039343220431

Volg BEIJING 3B in realtime met AllMySat

Download on the App Store